Stations météo

réclame
Mon MeteoGroup
Plymouth, Grande-Bretagne (3827): Température de l'air & dewpoint: 13.01.2018 23:00:00 - 19.01.2018 23:00:00 (GMT)Plymouth, Grande-Bretagne (3827): Vitesse du vent & gusts: 13.01.2018 23:00:00 - 19.01.2018 23:00:00 (GMT)Plymouth, Grande-Bretagne (3827): Direction du vent: 13.01.2018 23:00:00 - 19.01.2018 23:00:00 (GMT)Plymouth, Grande-Bretagne (3827): reduced air pressure: 13.01.2018 23:00:00 - 19.01.2018 23:00:00 (GMT)Plymouth, Grande-Bretagne (3827): visibility: 13.01.2018 23:00:00 - 19.01.2018 23:00:00 (GMT)Plymouth, Grande-Bretagne (3827): Quantités de précipitations: 13.01.2018 23:00:00 - 19.01.2018 23:00:00 (GMT)
Date & Time tt [°C] td [°C] ff [km/h] ff [knt] fx [km/h] fx [knt] dd ppp [hPa] vv [km] rr [mm]
19.01.2018 23:00:00 - - - - - - - - - -
19.01.2018 22:00:00 6,6 5,2 28 15 - - WSW 1012,2 14 0,0
19.01.2018 21:00:00 5,9 4,5 21 11 - - W 1012,6 13 0,0
19.01.2018 20:00:00 5,3 4,6 18 10 - - WSW 1013,2 14 0,0
19.01.2018 19:00:00 4,8 3,7 24 13 48 26 W 1013,4 40 1,4
19.01.2018 18:00:00 4,1 2,9 15 8 48 26 W 1013,4 15 0,4
19.01.2018 17:00:00 5,3 3,3 22 12 - - W 1013,6 18 0,4
19.01.2018 16:00:00 6,8 3,1 26 14 - - W 1013,1 19 0,0
19.01.2018 15:00:00 6,8 3,1 22 12 - - W 1013,1 21 0,0
19.01.2018 14:00:00 6,2 3,7 11 6 46 25 WNW 1013,2 27 0,0
19.01.2018 13:00:00 7,3 3,2 28 15 - - W 1013,0 35 0,0
19.01.2018 12:00:00 6,5 3,2 26 14 50 27 W 1013,6 40 0,0
19.01.2018 11:00:00 5,6 1,4 39 21 54 29 W 1013,9 30 0,0
19.01.2018 10:00:00 5,4 2,7 16 9 - - W 1013,3 21 0,0
19.01.2018 09:00:00 4,1 2,0 22 12 - - W 1012,9 13 0,0
19.01.2018 08:00:00 4,3 2,0 18 10 - - W 1012,6 30 0,0
19.01.2018 07:00:00 2,7 1,8 11 6 - - W 1012,3 18 0,0
19.01.2018 06:00:00 3,0 2,1 15 8 - - W 1012,0 30 0,0
19.01.2018 05:00:00 2,6 1,7 9 5 - - W 1011,7 30 0,0
19.01.2018 04:00:00 3,5 2,5 16 9 - - WNW 1011,7 40 0,2
19.01.2018 03:00:00 3,9 2,7 15 8 - - WNW 1011,4 12 0,2
19.01.2018 02:00:00 4,1 2,9 22 12 - - W 1011,1 21 1,0
19.01.2018 01:00:00 5,9 2,6 24 13 - - W 1010,7 19 0,0
19.01.2018 00:00:00 4,5 2,2 13 7 - - W 1011,1 24 0,0
18.01.2018 23:00:00 5,2 2,3 18 10 - - W 1011,1 15 0,0
18.01.2018 22:00:00 5,1 2,1 15 8 - - W 1011,0 30 0,0
18.01.2018 21:00:00 6,0 2,1 22 12 - - W 1010,5 27 0,0
18.01.2018 20:00:00 4,7 2,4 15 8 - - W 1010,3 40 0,0
18.01.2018 19:00:00 5,5 2,6 18 10 - - W 1009,9 30 0,0
18.01.2018 18:00:00 6,2 2,1 16 9 - - WNW 1009,4 30 0,0
18.01.2018 17:00:00 6,9 3,4 21 11 46 25 WNW 1008,2 23 0,0
18.01.2018 16:00:00 8,1 4,5 26 14 46 25 W 1007,1 30 0,0
18.01.2018 15:00:00 8,1 4,8 31 17 48 26 W 1006,4 19 0,6
18.01.2018 14:00:00 8,2 6,2 24 13 - - W 1006,5 25 0,0
18.01.2018 13:00:00 7,5 5,4 35 19 67 36 WNW 1006,7 12 0,2
18.01.2018 12:00:00 8,3 6,1 24 13 - - W 1006,7 13 0,0
18.01.2018 11:00:00 7,1 5,8 21 11 - - W 1007,0 30 0,2
18.01.2018 10:00:00 7,3 6,1 29 16 - - W 1006,5 9 0,4
18.01.2018 09:00:00 7,6 5,5 24 13 - - W 1005,8 12 0,0
18.01.2018 08:00:00 8,1 5,1 22 12 - - W 1005,2 11 0,0
18.01.2018 07:00:00 7,5 4,8 21 11 - - W 1004,8 9 0,0
18.01.2018 06:00:00 8,1 5,0 24 13 52 28 W 1004,4 13 0,0
18.01.2018 05:00:00 9,3 5,9 41 22 74 40 W 1003,6 7 0,0
18.01.2018 04:00:00 10,3 7,7 52 28 80 43 W 1002,8 7 0,0
18.01.2018 03:00:00 10,8 9,6 54 29 78 42 W 1002,1 11 0,2
18.01.2018 02:00:00 10,7 10,6 57 31 91 49 WSW 1001,8 6 0,4
18.01.2018 01:00:00 10,1 10,1 50 27 78 42 WSW 1002,5 3,0 1,0
18.01.2018 00:00:00 9,9 9,9 55 30 87 47 WSW 1003,0 2,2 1,8
17.01.2018 23:00:00 9,7 9,5 54 29 81 44 WSW 1003,9 2,3 2,0
17.01.2018 22:00:00 9,3 9,1 52 28 87 47 WSW 1005,0 2,6 2,8
17.01.2018 21:00:00 8,6 8,4 52 28 70 38 SW 1007,1 2,2 1,0
17.01.2018 20:00:00 8,0 7,4 37 20 59 32 SW 1009,7 4,3 0,8
17.01.2018 19:00:00 7,8 6,8 34 18 52 28 WSW 1011,3 6 0,4
17.01.2018 18:00:00 7,2 5,5 34 18 46 25 WSW 1012,5 15 0,2
17.01.2018 17:00:00 7,2 5,0 31 17 - - WSW 1013,1 10 0,0
17.01.2018 16:00:00 6,4 4,6 21 11 - - W 1014,0 10 0,2
17.01.2018 15:00:00 6,9 3,6 34 18 48 26 W 1014,2 14 0,0
17.01.2018 14:00:00 7,4 2,1 29 16 61 33 WNW 1014,6 21 0,0
17.01.2018 13:00:00 6,6 4,1 18 10 46 25 W 1015,0 10 0,2
17.01.2018 12:00:00 6,2 2,1 34 18 54 29 WNW 1015,1 5 0,0
17.01.2018 11:00:00 7,3 2,5 26 14 - - W 1014,5 11 0,0
17.01.2018 10:00:00 6,3 2,3 28 15 54 29 W 1014,2 24 0,0
17.01.2018 09:00:00 5,8 1,9 29 16 63 34 W 1013,3 6 0,0
17.01.2018 08:00:00 5,3 0,0 22 12 - - W 1012,2 16 0,0
17.01.2018 07:00:00 5,5 0,1 24 13 - - WNW 1011,5 14 0,0
17.01.2018 06:00:00 5,3 0,4 26 14 - - WNW 1010,4 23 0,0
17.01.2018 05:00:00 4,9 0,7 24 13 55 30 WNW 1009,2 13 0,2
17.01.2018 04:00:00 4,9 0,9 34 18 57 31 WNW 1007,8 16 0,6
17.01.2018 03:00:00 3,8 1,6 26 14 - - WNW 1006,3 6 0,6
17.01.2018 02:00:00 4,0 1,6 28 15 61 33 W 1005,3 18 0,0
17.01.2018 01:00:00 4,9 -0,5 35 19 55 30 WNW 1004,4 17 0,0
17.01.2018 00:00:00 4,8 1,0 41 22 61 33 W 1003,6 16 0,0
16.01.2018 23:00:00 3,6 1,9 29 16 61 33 W 1003,0 19 0,2
16.01.2018 22:00:00 3,8 1,4 41 22 70 38 WNW 1002,3 4,0 0,2
16.01.2018 21:00:00 3,8 2,1 34 18 57 31 W 1001,0 19 0,0
16.01.2018 20:00:00 3,2 1,9 44 24 102 55 W 1000,8 22 0,6
16.01.2018 19:00:00 4,7 3,1 35 19 52 28 W 1000,5 17 0,0
16.01.2018 18:00:00 3,6 2,4 41 22 94 51 WNW 1000,2 17 0,4
16.01.2018 17:00:00 5,5 4,1 37 20 67 36 W 1000,1 12 0,4
16.01.2018 16:00:00 5,5 4,0 42 23 61 33 W 1000,6 13 0,2
16.01.2018 15:00:00 5,3 4,2 29 16 57 31 W 1000,6 8 1,0
16.01.2018 14:00:00 5,5 4,4 31 17 76 41 W 1001,3 16 0,6
16.01.2018 13:00:00 7,2 3,2 37 20 65 35 W 1001,5 13 0,0
16.01.2018 12:00:00 7,3 4,0 35 19 61 33 W 1002,3 45 0,0
16.01.2018 11:00:00 6,1 4,3 29 16 72 39 W 1002,8 22 0,8
16.01.2018 10:00:00 6,2 4,9 28 15 57 31 W 1002,6 6 0,4
16.01.2018 09:00:00 5,7 4,7 28 15 54 29 W 1002,1 23 0,6
16.01.2018 08:00:00 6,5 4,6 37 20 59 32 W 1001,4 7 0,0
16.01.2018 07:00:00 7,4 4,6 29 16 46 25 W 1000,8 8 0,0
16.01.2018 06:00:00 6,9 4,7 37 20 57 31 W 1000,3 19 0,2
16.01.2018 05:00:00 7,9 5,0 34 18 57 31 W 1000,0 13 0,0
16.01.2018 04:00:00 7,4 5,4 31 17 54 29 W 999,6 13 0,2
16.01.2018 03:00:00 8,0 5,5 35 19 72 39 W 999,6 10 0,0
16.01.2018 02:00:00 7,8 5,6 55 30 94 51 W 999,5 6 0,2
16.01.2018 01:00:00 8,4 5,7 44 24 59 32 W 999,3 10 0,6
16.01.2018 00:00:00 8,7 6,1 39 21 59 32 W 999,5 8 0,0
15.01.2018 23:00:00 8,2 6,6 29 16 61 33 W 999,7 9 0,0
15.01.2018 22:00:00 7,9 7,0 34 18 48 26 W 999,9 8 0,2
15.01.2018 21:00:00 7,6 6,4 29 16 - - W 1000,1 14 0,4
15.01.2018 20:00:00 7,9 6,3 31 17 54 29 W 1000,4 14 0,0
15.01.2018 19:00:00 9,0 5,8 31 17 50 27 W 1000,1 15 0,0
15.01.2018 18:00:00 9,0 5,7 31 17 52 28 W 1000,3 15 0,0
15.01.2018 17:00:00 9,0 6,2 34 18 52 28 W 1000,1 11 0,0
15.01.2018 16:00:00 9,4 6,2 34 18 59 32 W 999,7 13 0,0
15.01.2018 15:00:00 9,6 6,1 37 20 54 29 W 999,6 16 0,0
15.01.2018 14:00:00 10,3 7,0 42 23 68 37 W 999,4 11 0,0
15.01.2018 13:00:00 10,2 8,2 41 22 70 38 W 999,0 6 0,0
15.01.2018 12:00:00 10,5 9,6 44 24 59 32 W 999,0 13 0,4
15.01.2018 11:00:00 10,4 9,8 37 20 68 37 W 999,7 17 0,0
15.01.2018 10:00:00 10,2 10,2 39 21 59 32 WSW 1000,0 4,9 0,4
15.01.2018 09:00:00 10,1 10,1 37 20 63 34 WSW 1000,4 4,4 1,2
15.01.2018 08:00:00 10,0 10,0 37 20 54 29 SW 999,9 11 0,2
15.01.2018 07:00:00 10,0 10,0 29 16 57 31 WSW 1002,3 7 0,0
15.01.2018 06:00:00 10,1 10,1 37 20 78 42 WSW 1003,6 4,2 0,6
15.01.2018 05:00:00 9,6 9,6 52 28 72 39 SW 1004,7 2,6 2,6
15.01.2018 04:00:00 9,2 9,2 52 28 74 40 SW 1006,4 1,5 1,8
15.01.2018 03:00:00 8,9 8,5 50 27 72 39 SW 1008,1 1,7 0,8
15.01.2018 02:00:00 9,2 8,0 48 26 65 35 SW 1009,9 2,1 -
15.01.2018 01:00:00 9,2 7,4 42 23 55 30 SW 1011,5 13 0,0
15.01.2018 00:00:00 9,2 7,4 37 20 54 29 SW 1013,2 21 0,0
14.01.2018 23:00:00 9,3 7,9 29 16 - - SW 1014,2 13 0,0
14.01.2018 22:00:00 9,0 6,9 29 16 - - SSW 1014,9 15 0,0
14.01.2018 21:00:00 8,4 6,5 29 16 - - S 1015,4 25 0,0
14.01.2018 20:00:00 7,9 6,0 24 13 - - SSW 1016,7 11 0,0
14.01.2018 19:00:00 7,5 5,0 22 12 - - SSW 1016,6 27 0,0
14.01.2018 18:00:00 7,6 4,7 21 11 - - S 1016,9 14 0,0
14.01.2018 17:00:00 7,2 3,9 13 7 - - S 1016,8 35 0,0
14.01.2018 16:00:00 7,1 5,2 9 5 - - ESE 1017,0 9 0,0
14.01.2018 15:00:00 7,6 4,9 13 7 - - ESE 1017,6 9 0,0
14.01.2018 14:00:00 7,6 4,7 9 5 - - ESE 1017,7 8 0,0
14.01.2018 13:00:00 7,7 4,9 5 3 - - E 1018,0 11 0,0
14.01.2018 12:00:00 7,8 5,0 9 5 - - E 1018,0 9 0,0
14.01.2018 11:00:00 6,6 5,2 5 3 - - E 1018,7 7 0,0
14.01.2018 10:00:00 4,7 4,3 5 3 - - NE 1018,8 4,1 0,0
14.01.2018 09:00:00 4,0 3,4 5 3 - - ENE 1018,2 4,3 0,0
14.01.2018 08:00:00 4,3 3,7 8 4 - - ENE 1017,6 5 0,0
14.01.2018 07:00:00 4,2 3,4 5 3 - - ENE 1017,2 5 0,0
14.01.2018 06:00:00 4,5 3,8 8 4 - - E 1016,9 5 0,0
14.01.2018 05:00:00 5,0 4,3 8 4 - - ENE 1016,7 7 0,0
14.01.2018 04:00:00 5,2 4,4 8 4 - - NE 1016,6 9 0,0
14.01.2018 03:00:00 5,6 4,7 9 5 - - E 1016,4 7 0,0
14.01.2018 02:00:00 6,2 5,0 9 5 - - E 1016,0 7 0,0
14.01.2018 01:00:00 6,4 5,1 11 6 - - E 1015,8 5 0,0
14.01.2018 00:00:00 7,2 5,6 11 6 - - E 1016,1 10 0,0
13.01.2018 23:00:00 7,3 5,7 15 8 - - E 1015,6 7 0,0

tt = Température de l'air
td = dewpoint
ff = Vitesse du vent
fx = gusts
dd = Direction du vent
ppp = reduced air pressure
vv = visibility
rr = Quantités de précipitations

stations d'obs. à proximité